Content
SEND FEEDBACK

Daily
Averages
Monthly
Summary
Philippines

QUEZON CITY, PHILIPPINES


Home > Asia > Philippines
Elevation: 46 meters     Latitude: 14 39N     Longitude: 121 03E

WEATHER
 
SELECT A DAY
Number of Records: 172,358;   Date Range: 7/1/96 - 7/20/14
 
SHARE

PRINT THIS DATA

[ ← Previous Day ]
WEATHER ALMANAC - 15 SEPTEMBER, 2013
[ Next Day → ]
[ °F ]   °C
Weather ElementAverageHighLow
Temperature25.6 °C29 °C (10:00 am)23.3 °C (5:00 pm)
Dewpoint25.1 °C26.1 °C (11:00 am)23.3 °C (5:00 pm)
Humidity97.1 %100 % (2:00 am)84 % (10:00 am)
Barometer1006.4 hPa1009.1 hPa (11:00 pm)1005.1 hPa (3:00 am)
Wind Speed10.1 km/h22.2 km/h (5:00 pm)
Weather ElementAverage
Visibility9.2 km
Wind DirectionSSW (211.3 °)

Weather ElementTotal
Precipitation---
Cooling Degree Days7.8 (Base 18.3)
Growing Degree Days16.2 (Base 10)
Averaged from 32 records on 15 September, 2013
WEATHER CONDITIONS BREAKOUT
WIND DIRECTION BREAKOUT
WEATHER BY HOUR - 15 SEPTEMBER, 2013
[ °F ]   °C
Local TimeTemperatureDewpointHumidityBarometerVisibilityWind DirectionWind SpeedGust SpeedPrecipitationEventsConditions
1:00 AM26 °C25 °C94 %1006.1 hPa10 kmWNW (290°)11.1 km/hOvercast
2:00 AM25.6 °C25.6 °C100 %1006.4 hPa9.7 kmSW (230°)10.8 km/hHaze
2:00 AM26 °C25 °C94 %1006.1 hPa10 kmSW (230°)9.3 km/hOvercast
3:00 AM26 °C26 °C100 %1005.1 hPa10 kmSW (230°)13 km/hOvercast
4:00 AM25 °C25 °C100 %1005.1 hPa10 kmSW (220°)11.1 km/hOvercast
5:00 AM24.4 °C24.4 °C100 %1005.1 hPa9.7 kmSW (220°)7.2 km/hRainLight Rain
5:00 AM25 °C24 °C94 %1005.1 hPa10 kmSW (230°)9.3 km/hRainLight Rain
6:00 AM25 °C25 °C100 %1006.1 hPa10 kmWSW (250°)5.6 km/hRainLight Rain
7:00 AM26 °C25 °C94 %1006.1 hPa10 kmWest (270°)7.4 km/hMostly Cloudy
8:00 AM26.7 °C25.6 °C91 %1007.8 hPa9.7 kmWSW (240°)3.5 km/hHaze
8:00 AM27 °C26 °C94 %1007.1 hPa10 kmWSW (240°)5.6 km/hMostly Cloudy
9:00 AM28 °C26 °C89 %1007.1 hPa10 kmWSW (250°)13 km/hMostly Cloudy
10:00 AM29 °C26 °C84 %1007.1 hPa10 kmWest (270°)18.5 km/hScattered Clouds
10:35 AM26 °C26 °C100 %1007.1 hPa10 kmWSW (240°)7.4 km/hRainLight Rain Showers
11:00 AM27.8 °C26.1 °C87 %1007.5 hPa9.7 kmWest (270°)14.3 km/hRainLight Rain
11:00 AM28 °C26 °C89 %1007.1 hPa10 kmWest (270°)14.8 km/hRainLight Rain
12:00 PM26 °C26 °C100 %1007.1 hPa6.9 kmWest (260°)13 km/hRainRain
1:00 PM26 °C26 °C100 %1006.1 hPa10 kmWNW (300°)11.1 km/hRainRain
2:00 PM26.1 °C26.1 °C98 %1006.1 hPa9.7 kmSW (220°)10.8 km/hRainLight Rain
2:00 PM26 °C26 °C100 %1005.1 hPa10 kmSW (230°)9.3 km/hRainRain
3:00 PM26 °C26 °C100 %1005.1 hPa10 kmVariable5.6 km/hRainLight Rain
4:00 PM25 °C25 °C100 %1005.1 hPa5 kmWest (270°)13 km/hRainRain
5:00 PM23.3 °C23.3 °C100 %1006.1 hPaSW (230°)18 km/hRainHeavy Rain
5:00 PM24 °C24 °C100 %1006.1 hPa3.1 kmSW (230°)22.2 km/hRainHeavy Rain
6:00 PM24 °C24 °C100 %1006.1 hPa8 kmSW (220°)11.1 km/hRainRain
7:00 PM24 °C24 °C100 %1007.1 hPa6.9 kmVariable3.7 km/hRainRain
8:00 PM24.4 °C24.4 °C98 %1008.1 hPa8 kmSW (230°)7.2 km/hRainLight Rain
8:00 PM24 °C24 °C100 %1007.1 hPa8 kmSW (230°)7.4 km/hRainLight Rain
9:00 PM24 °C24 °C100 %1008.1 hPa10 kmEast (80°)14.8 km/hRainLight Rain
10:00 PM24 °C24 °C100 %1008.1 hPa10 kmEast (90°)5.6 km/hRainLight Rain
11:00 PM24.4 °C24.4 °C100 %1009.1 hPa9.7 kmESE (120°)3.5 km/hRainLight Rain
11:00 PM25 °C25 °C100 %1008.1 hPa10 kmEast (100°)5.6 km/hRainLight Rain
Hourly data recorded from RPLL, located 0 kilometers away from Quezon City, Philippines







STORIES FROM OUR PARTNERS